HYLAS 4 (43272 NORAD) Tracking and Keplerian Element Data

This shows tracking and keplerian element data for the satellite.

Feedback or suggestion? Click here.




ElementValue
Catalog43272
NameHYLAS 4
Epoch Orbit420
Epoch Day144.3234434
Epoch Year2019
RAAN120.2283
Inclination0.0635
Eccentricity0.0003278
Argument of Perigee16.6205
Mean Anonmoly187.7377
Mean Motion1.00272922
Decay Rate-2.39E-06
L11 43272U 18033B 19144.32344340 -.00000239 00000-0 00000+0 0 9999
L22 43272 0.0635 120.2283 0003278 16.6205 187.7377 1.00272922 4203

Live tracking and technical data element details for HYLAS 4 (NORAD 43272). HYLAS 4 can be tracked NOW for your location showing map with azimuth and elevation plus other details from your city location.

Track the satellite on the map from your city or location and see movement details for azimuth, elevation, latitude, longitude, range, height, and movement on the map or in text.







IsCatalogInMostPopularTable: catalog: 43272, numindb: 187
Update: records affected: 1



GetName: 43272 HYLAS 4

Hit Count: updated at: Sat, 25 May 2019 13:13:31 GMT